User: anonymous   Login
Location: Unspecified
(0.0000°N, 0.0000°E)
Time: 10:23:42
(UTC+00:00)
Language:

XW-2E - Orbit

View from above orbital plane
View from above orbital plane
View from above satellite
View from above satellite

Ground track
Ground track

The orbit data is extracted from the following two-line orbital elements,

1 40909U 15049L   21340.87006083  .00003580  00000-0  16711-3 0  9998
2 40909  97.4672 345.2574 0011228 292.2486 187.0819 15.20433228344124
Epoch (UTC): 06 December 2021 20:52:53
Eccentricity: 0.0011228
inclination: 97.4672°
perigee height: 497 km
apogee height: 512 km
right ascension of ascending node: 345.2574°
argument of perigee: 292.2486°
revolutions per day: 15.20433228
mean anomaly at epoch: 187.0819°
orbit number at epoch: 34412

The dashed part of the orbit path shows where the satellite is in the earth's shadow,  

DLR